Location: Newark
(45.4422°N, 16.2769°E)
Time: 14:21:47
(UTC+00:00)

Vanguard 2 - Pass Details

Date: 09 December 2019
Orbit: 553 x 2938 km, 32.9° (Epoch: 23 January)

Event Time Altitude Azimuth Distance (km) Brightness Sun altitude
Rises 21:20:43 0° 175° (S) 5,502 - -61.4°
Reaches altitude 10° 21:27:44 10° 149° (SSE) 5,044 - -62.2°
Maximum altitude 21:32:47 12° 129° (SE) 5,139 - -62.8°
Drops below altitude 10° 21:38:15 10° 110° (ESE) 5,586 - -63.4°
Sets 21:47:08 0° 87° (E) 6,791 - -64.3°
